Weather History for Evanston, WY

Change the Weather History Date:

Friday, March 8, 2013

  Actual Average Record
Temperature  
Mean Temperature 30 °F 28 °F  
Max Temperature 37 °F 37 °F 44 °F (2005)
Min Temperature 24 °F 20 °F 3 °F (1998)
Degree Days  
Heating Degree Days 34 37  
Month to date heating degree days 245 303  
Since 1 July heating degree days 5840 6311  
Cooling Degree Days 0 0  
Month to date cooling degree days 0 0  
Year to date cooling degree days 0 0  
Moisture  
Dew Point 27 °F    
Average Humidity 81    
Maximum Humidity 92    
Minimum Humidity 70    
Precipitation  
Precipitation 0.00 in 0.02 in 0.14 in (2007)
Month to date precipitation 0.05 0.17  
Year to date precipitation 0.52 1.32  
Sea Level Pressure  
Sea Level Pressure 29.82 in    
Wind  
Wind Speed 4 mph (NE)    
Max Wind Speed 7 mph    
Max Gust Speed -    
Visibility 4 miles    
Events Fog , Snow    
T = Trace of Precipitation, MM = Missing Value Source: NWS Daily Summary

Daily Weather History Graph

Daily Weather History Graph

Search for Another Location

Airport:

Trip Planner

Search our weather history database for the weather conditions in past years. The results will help you decide how hot, cold, wet, or windy it might be!

Date:

Astronomy

Mar. 08, 2013 Rise Set
Actual Time 6:46 AM MST 6:23 PM MST
Civil Twilight 6:19 AM MST 6:50 PM MST
Nautical Twilight 5:47 AM MST 7:22 PM MST
Astronomical Twilight 5:15 AM MST 7:55 PM MST
Moon 4:35 AM MST (3/8) 3:20 PM MST (3/8)
Length of Visible Light 12h 31m
Length of Day
11h 36m
Waning Crescent, 11% of the Moon is Illuminated
Mar 8
Waning Crescent
Mar 11
New
Mar 19
First Quarter
Mar 27
Full
Apr 2
Last Quarter

Hourly Weather History & Observations

Time (MST) Temp. Windchill Dew Point Humidity Pressure Visibility Wind Dir Wind Speed Gust Speed Precip Events Conditions
12:07 AM 28.4 °F 24.6 °F 28.4 °F 100% 29.92 in 1.5 mi NE 3.5 mph - 0.00 in Snow Light Snow
12:16 AM 28.4 °F - 28.4 °F 100% 29.92 in 0.5 mi Calm Calm - 0.00 in Fog Light Freezing Fog
12:53 AM 28.9 °F - 28.0 °F 96% 29.92 in 0.8 mi Calm Calm - 0.00 in   Overcast
12:57 AM 28.4 °F 24.6 °F 28.4 °F 100% 29.91 in 1.5 mi North 3.5 mph - N/A   Overcast
1:03 AM 28.4 °F 23.3 °F 28.4 °F 100% 29.91 in 1.8 mi NE 4.6 mph - 0.00 in Snow Light Snow
1:06 AM 30.2 °F 26.7 °F 28.4 °F 93% 29.91 in 3.0 mi NE 3.5 mph - 0.00 in Snow Light Snow
1:53 AM 28.9 °F 22.8 °F 27.0 °F 92% 29.90 in 8.0 mi ENE 5.8 mph - 0.00 in   Mostly Cloudy
1:56 AM 28.4 °F 22.2 °F 26.6 °F 93% 29.90 in 1.8 mi East 5.8 mph - N/A   Mostly Cloudy
2:00 AM 28.4 °F 22.2 °F 26.6 °F 93% 29.90 in 1.0 mi East 5.8 mph - N/A   Overcast
2:07 AM 28.4 °F 23.3 °F 26.6 °F 93% 29.90 in 0.2 mi ESE 4.6 mph - N/A Fog Light Freezing Fog
2:15 AM 28.4 °F 23.3 °F 26.6 °F 93% 29.89 in 0.2 mi East 4.6 mph - N/A Fog Light Freezing Fog
2:53 AM 28.0 °F - 27.0 °F 96% 29.88 in 0.2 mi Calm Calm - N/A Fog Light Freezing Fog
3:50 AM 26.6 °F - 24.8 °F 93% 29.87 in 1.0 mi Calm Calm - N/A   Overcast
3:53 AM 27.0 °F 23.0 °F 25.0 °F 92% 29.88 in 0.5 mi SSW 3.5 mph - N/A Fog Light Freezing Fog
4:16 AM 26.6 °F 21.2 °F 26.6 °F 100% 29.86 in 2.0 mi ESE 4.6 mph - N/A   Overcast
4:18 AM 26.6 °F 21.2 °F 26.6 °F 100% 29.85 in 5.0 mi ESE 4.6 mph - N/A   Overcast
4:31 AM 26.6 °F 20.0 °F 24.8 °F 93% 29.85 in 1.2 mi East 5.8 mph - N/A   Overcast
4:39 AM 24.8 °F 19.1 °F 24.8 °F 100% 29.85 in 0.5 mi East 4.6 mph - N/A Fog Light Freezing Fog
4:45 AM 26.6 °F 22.6 °F 24.8 °F 93% 29.85 in 2.0 mi East 3.5 mph - N/A   Overcast
4:49 AM 26.6 °F 22.6 °F 24.8 °F 93% 29.85 in 5.0 mi ENE 3.5 mph - N/A   Overcast
4:53 AM 27.0 °F 23.0 °F 25.0 °F 92% 29.86 in 1.0 mi ENE 3.5 mph - N/A   Overcast
4:58 AM 26.6 °F 22.6 °F 24.8 °F 93% 29.85 in 0.2 mi East 3.5 mph - N/A Fog Light Freezing Fog
5:10 AM 26.6 °F 22.6 °F 24.8 °F 93% 29.85 in 0.2 mi East 3.5 mph - N/A Fog Light Freezing Fog
5:20 AM 26.6 °F 22.6 °F 24.8 °F 93% 29.85 in 0.8 mi ENE 3.5 mph - N/A   Overcast
5:23 AM 26.6 °F 21.2 °F 24.8 °F 93% 29.84 in 2.5 mi ENE 4.6 mph - N/A   Mostly Cloudy
5:30 AM 26.6 °F 19.1 °F 24.8 °F 93% 29.85 in 10.0 mi East 6.9 mph - N/A   Scattered Clouds
5:53 AM 26.1 °F 20.5 °F 24.1 °F 92% 29.86 in 10.0 mi NNE 4.6 mph - N/A   Mostly Cloudy
5:59 AM 24.8 °F 20.5 °F 24.8 °F 100% 29.85 in 2.0 mi North 3.5 mph - N/A   Overcast
6:14 AM 26.6 °F 21.2 °F 24.8 °F 93% 29.85 in 10.0 mi North 4.6 mph - N/A   Overcast
6:53 AM 27.0 °F 21.6 °F 25.0 °F 92% 29.87 in 10.0 mi NNE 4.6 mph - N/A   Overcast
7:22 AM 26.6 °F 20.0 °F 24.8 °F 93% 29.86 in 1.2 mi SW 5.8 mph - N/A   Overcast
7:26 AM 26.6 °F 21.2 °F 24.8 °F 93% 29.87 in 0.2 mi WSW 4.6 mph - N/A Fog Light Freezing Fog
7:38 AM 28.4 °F 20.4 °F 26.6 °F 93% 29.87 in 0.2 mi West 8.1 mph - N/A Fog Light Freezing Fog
7:43 AM 28.4 °F 21.2 °F 26.6 °F 93% 29.87 in 0.2 mi WNW 6.9 mph - N/A Fog Light Freezing Fog
7:51 AM 28.4 °F 22.2 °F 26.6 °F 93% 29.87 in 0.2 mi NW 5.8 mph - 0.00 in Fog , Snow Light Snow
7:58 AM 28.4 °F 24.6 °F 28.4 °F 100% 29.87 in 0.2 mi NW 3.5 mph - 0.00 in Fog , Snow Light Snow
8:06 AM 28.4 °F - 28.4 °F 100% 29.87 in 0.8 mi Calm Calm - 0.00 in Snow Light Snow
8:15 AM 28.4 °F 23.3 °F 26.6 °F 93% 29.86 in 1.2 mi NE 4.6 mph - 0.00 in Snow Light Snow
8:24 AM 26.6 °F 17.5 °F 26.6 °F 100% 29.85 in 0.5 mi ENE 9.2 mph - 0.00 in Fog , Snow Light Snow
8:35 AM 28.4 °F 21.2 °F 26.6 °F 93% 29.85 in 0.2 mi East 6.9 mph - 0.00 in Fog Light Freezing Fog
8:53 AM 28.9 °F 21.9 °F 27.0 °F 92% 29.87 in 0.2 mi ENE 6.9 mph - 0.00 in Fog Light Freezing Fog
9:53 AM 30.0 °F 26.5 °F 28.0 °F 92% 29.85 in 2.0 mi East 3.5 mph - 0.07 in   Mostly Cloudy
10:02 AM 30.2 °F 25.4 °F 28.4 °F 93% 29.83 in 10.0 mi ENE 4.6 mph - 0.02 in   Mostly Cloudy
10:11 AM 30.2 °F 26.7 °F 28.4 °F 93% 29.83 in 10.0 mi East 3.5 mph - 0.02 in   Mostly Cloudy
10:53 AM 32.0 °F - 27.0 °F 82% 29.82 in 10.0 mi Calm Calm - 0.02 in   Clear
11:53 AM 34.0 °F 29.8 °F 30.0 °F 85% 29.80 in 10.0 mi NNE 4.6 mph - N/A   Clear
12:53 PM 36.0 °F - 28.9 °F 76% 29.77 in 10.0 mi Calm Calm - N/A   Partly Cloudy
1:53 PM 37.0 °F 34.5 °F 28.0 °F 70% 29.74 in 10.0 mi ENE 3.5 mph - N/A   Mostly Cloudy
2:53 PM 37.0 °F 33.3 °F 30.0 °F 76% 29.73 in 10.0 mi NNE 4.6 mph - N/A   Overcast
3:53 PM 36.0 °F 30.3 °F 30.9 °F 82% 29.73 in 10.0 mi North 6.9 mph - N/A   Overcast
4:53 PM 35.1 °F 29.3 °F 28.9 °F 78% 29.73 in 10.0 mi ENE 6.9 mph - N/A   Overcast
5:02 PM 33.8 °F 28.6 °F 30.2 °F 87% 29.73 in 10.0 mi ENE 5.8 mph - N/A   Overcast
5:10 PM 33.8 °F 27.0 °F 30.2 °F 87% 29.73 in 5.0 mi East 8.1 mph - N/A   Overcast
5:21 PM 33.8 °F 27.7 °F 32.0 °F 93% 29.73 in 4.0 mi ENE 6.9 mph - N/A   Overcast
5:41 PM 33.8 °F 27.7 °F 30.2 °F 87% 29.73 in 7.0 mi ENE 6.9 mph - N/A   Overcast
5:53 PM 34.0 °F 28.8 °F 30.9 °F 89% 29.73 in 10.0 mi ENE 5.8 mph - N/A   Overcast
6:53 PM 33.1 °F 28.7 °F 30.0 °F 89% 29.73 in 5.0 mi NW 4.6 mph - 0.00 in Snow Light Snow
7:02 PM 33.8 °F 28.6 °F 30.2 °F 87% 29.73 in 4.0 mi NW 5.8 mph - 0.00 in Snow Light Snow
7:40 PM 32.0 °F 24.2 °F 28.4 °F 87% 29.73 in 2.5 mi NNW 9.2 mph - 0.00 in Snow Light Snow
7:53 PM 30.9 °F 22.8 °F 28.9 °F 92% 29.74 in 3.0 mi North 9.2 mph - 0.00 in Snow Light Snow
8:10 PM 30.2 °F 23.4 °F 28.4 °F 93% 29.73 in 6.0 mi North 6.9 mph - 0.00 in Snow Light Snow
8:53 PM 30.9 °F 25.2 °F 28.0 °F 89% 29.74 in 10.0 mi North 5.8 mph - 0.00 in   Overcast
9:53 PM 30.9 °F 22.2 °F 28.0 °F 89% 29.73 in 5.0 mi NNW 10.4 mph - 0.00 in Snow Light Snow
10:16 PM 30.2 °F 20.8 °F 28.4 °F 93% 29.73 in 7.0 mi North 11.5 mph - 0.00 in Snow Light Snow
10:25 PM 30.2 °F 21.9 °F 28.4 °F 93% 29.72 in 6.0 mi North 9.2 mph - 0.00 in Snow Light Snow
10:53 PM 30.0 °F 21.1 °F 28.0 °F 92% 29.72 in 10.0 mi North 10.4 mph - 0.00 in   Overcast
11:53 PM 30.9 °F 21.2 °F 28.0 °F 89% 29.69 in 10.0 mi North 12.7 mph - N/A   Overcast